Regional Weather Roundup
Issued by NWS Midland/Odessa, TX

Skip options and go directly to product.
Home | Oldest Version | Next Version | Current Version | All | Text Only | Save Text | Print | Product List | Glossary On

Skip product version selection by date and time.   
377
ASUS44 KMAF 261301
RWRMAF
MIDLAND AREA WEATHER ROUNDUP
NATIONAL WEATHER SERVICE MIDLAND TX
800 AM CDT THU MAR 26 2015

...IN SOUTHWEST TEXAS AND SOUTHEAST NEW MEXICO...

CITY           SKY/WX    TMP DP  RH WIND       PRES   REMARKS
ALPINE         CLOUDY    41  33  73 N15       30.32S WCI  33
ANDREWS        FAIR      38  34  84 N10       30.28R WCI  31
ARTESIA        CLEAR     34  30  86 NW8       30.36R WCI  27
BIG SPRING     CLEAR     43  35  72 N10       30.27R WCI  38
CARLSBAD       CLEAR     40  32  73 N13       30.34R WCI  32
DRYDEN           N/A     52  38  58 N17G28    30.21R
FORT STOCKTON  CLOUDY    45  36  70 N14       30.30R WCI  38
GUAD PASS      CLEAR     34  29  82 NE35      30.24R WCI  19
HOBBS            N/A     34  32  93 NW8       30.32R WCI  27
MARFA          PTCLDY    39  30  70 N24       30.25R WCI  28
MIDLAND AIRPK  CLEAR     42  35  76 N13       30.26S WCI  35
MIDLAND INTL   CLEAR     41  35  79 N12       30.27R WCI  34
ODESSA         CLEAR     41  34  76 N13       30.28R WCI  34
PECOS          CLEAR     43  35  74 NW6       30.33R WCI  39
PRESIDIO       FAIR      51  34  51 N14G28    30.22R
SEMINOLE       CLEAR     37  31  77 N9        30.31R WCI  30
SNYDER         CLEAR     40  33  78 N15G22    30.24R WCI  31
WINK           CLEAR     42  33  70 NW9       30.30R WCI  37
$$
...OTHER STATIONS IN TEXAS...

CITY           SKY/WX    TMP DP  RH WIND       PRES   REMARKS
ABILENE        CLEAR     43  37  79 N17       30.21R WCI  35
AMARILLO       CLEAR     32  29  88 N8        30.28R WCI  25
AUSTIN         CLOUDY    54  46  74 N15G29    30.04R
BROWNSVILLE    FOG       72  71  97 SE6       29.85R VSB 1/4
CORPUS CHRISTI FOG       71  70  96 CALM      29.88R VSB 3/4
DALLAS FTW     CLOUDY    51  42  71 N26G32    30.07R
DEL RIO        CLOUDY    56  43  61 NW21G28   30.13R
EL PASO        CLEAR     47  28  47 N3        30.25R
HOUSTON INT    CLOUDY    66  64  93 CALM      29.92R FOG
LUBBOCK        PTCLDY    34  29  82 N12       30.27R WCI  25
SAN ANGELO     CLEAR     47  38  71 N20       30.19R WCI  40
SAN ANTONIO    MOCLDY    56  47  71 N13G26    30.01R
WACO           CLOUDY    52  43  71 N20G32    30.06R
WICHITA FALLS  NOT AVBL
$$
...OTHER LOCATIONS IN NEW MEXICO...

CITY           SKY/WX    TMP DP  RH WIND       PRES   REMARKS
ALAMAGORDO     CLEAR     41  28  60 SE8       30.25R WCI  36
ALBUQUERQUE    CLEAR     38  25  59 N9        30.32R WCI  31
CANNON AFB     NOT AVBL
CLOVIS         CLEAR     30  27  86 N12       30.31R WCI  21
HOLLOMAN AFB   NOT AVBL
ROSWELL        CLEAR     39  30  70 NW3       30.35R
RUIDOSO        CLEAR     27  23  86 S8        30.33R WCI  18
SANTA FE       CLEAR     26  20  77 N5        30.32R WCI  20
TRUTH OR CONSE CLEAR     41  25  53 N6        30.27R WCI  37
TUCUMCARI      CLEAR     33  28  81 W9        30.31R WCI  25
$$

USA.gov is the U.S. government's official web portal to all federal, state and local government web resources and services.